Regional Weather Roundup
Issued by NWS Albany, NY

Home | Current Version | Previous Version | Text Only | Print | Product List | Glossary On
Versions: 1 2 3 4 5 6 7 8 9 10 11 12 13 14 15 16 17 18 19 20 21 22 23 24 25 26 27 28 29 30 31 32 33 34 35 36 37 38 39 40 41 42 43 44 45 46 47 48 49 50
000
ASUS41 KALY 172210
RWRALY

NEW YORK STATE HOURLY WEATHER ROUNDUP
NATIONAL WEATHER SERVICE ALBANY NY
500 PM EST WED JAN 17 2018

NOTE: "FAIR" INDICATES FEW OR NO CLOUDS BELOW 12,000 FEET WITH NO
SIGNIFICANT WEATHER AND/OR NO OBSTRUCTIONS TO VISIBILITY.

NYZ032-033-038>043-046>054-057>066-NYZ062>081-082-084-172300-
EAST


CITY           SKY/WX    TMP DP  RH WIND       PRES   REMARKS
ALBANY         CLOUDY    22  12  65 W15       30.23F WCI   9
GLENS FALLS    LGT SNOW  23  22  96 S9        30.18S FOG     WCI  13
POUGHKEEPSIE   CLOUDY    28  23  81 N8        30.18F WCI  20
NEWBURGH       CLOUDY    25  21  86 W12       30.18F WCI  14
MONTGOMERY     CLOUDY    25  16  68 W5        30.16F WCI  19
WHITE PLAINS   MOCLDY    27  23  85 NW16      30.13F WCI  15
ISLIP          CLOUDY    34  31  88 NW9       30.13F WCI  27
NEW YORK CITY  CLOUDY    31  23  72 NW14      30.17F WCI  21
CENTRAL PARK   FAIR      29  21  72 NW6       30.19F WCI  23
$$

NYZ005>009-017-018-044>046-055-056-172300-
CENTRAL


CITY           SKY/WX    TMP DP  RH WIND       PRES   REMARKS
FULTON         CLOUDY    20   9  62 W12       30.26F WCI   8
SYRACUSE       FAIR      18   9  68 SW8       30.27F WCI   8
ROME           CLOUDY    17   9  70 CALM      30.27F
ELMIRA         FAIR      20   7  57 W7        30.25F WCI  11
BINGHAMTON     FAIR      14   7  73 NW3       30.18F
MONTICELLO     FLURRIES  16  11  80 NW9       30.17S WCI   4
$$

NYZ026>034-041>043-087-172300-
NORTH


CITY           SKY/WX    TMP DP  RH WIND       PRES   REMARKS
WATERTOWN      CLOUDY    22  18  85 W12G22    30.22F FOG     WCI  10
FORT DRUM      NOT AVBL
OGDENSBURG     FAIR      19  14  79 SW9       30.19F WCI   9
MASSENA        MOCLDY    22  16  78 SW16      30.18F WCI   8
SARANAC LAKE   CLOUDY    17  13  84 SW9       30.08F WCI   6
PLATTSBURGH    FAIR      17  13  84 CALM      30.18F
$$

NYZ001>004-010>016-019>021-085-172300-
WEST


CITY           SKY/WX    TMP DP  RH WIND       PRES   REMARKS
NIAGARA FALLS  MOCLDY    20  11  68 SW18G26   30.26F WCI   5
BUFFALO        FLURRIES  17  13  84 SW18G28   30.27F WCI   1
DUNKIRK        FAIR      17   9  70 SW12      30.31F WCI   4
JAMESTOWN      FLURRIES  12   6  77 SW9       30.24F WCI   0
WELLSVILLE     CLOUDY    15   6  67 W9        30.19F WCI   3
ROCHESTER      CLOUDY    19  11  70 SW15      30.27F WCI   5
PENN YAN       FAIR      16   4  59 W9        30.25F WCI   4
$$

             KEY
       WCI = WIND CHILL INDEX
       VSB = VISIBILITY
       HX  = HEAT INDEX
$$



USA.gov is the U.S. government's official web portal to all federal, state and local government web resources and services.